Погода в Светлогорске

Россия / Нижегородская область     55°11′24″N   44°00′03″E
темп.,
°C
ветер,
м/с
пор.,
м/с
влажн.,
%
обл.,
%
осадки,
мм/ч
давл.,
гПа
погр.,
м
30 июня, чт
чт3000:00+10зсз22741 0.0 101827
03:00+9зсз2373100 0.0 101852
06:00+12сз3774100 0.0 1016213
09:00+19сз475298 0.0 1015908
12:00+21сз574160 0.0 10142289
15:00+19ссз3756100 0.0 1012236
18:00+19сз496027 0.0 1011834
21:00+15св51160100 0.1 1012463
1 июля, пт
пт100:00+11св2880100 0.0 1014315
03:00+8ссв4118118 0.1 1016334
06:00+9с510700 0.0 1016841
09:00+9ссв61269100 0.0 10161462
12:00+7ссв41192100 1.0 10181168
15:00+12ссв6107798 1.0 10181008
18:00+15св5117445 0.1 10171195
21:00+13ссв4137924 0.1 1017487
2 июля, сб
сб200:00+11с3108233 0.0 1018183
03:00+9с398849 0.0 1018139
06:00+12с39735 0.0 1018248
09:00+18с47543 0.0 1018841
12:00+21ссв574554 0.0 10161920
15:00+20ссв365340 0.0 1015589
18:00+21св24577 0.0 1015468
21:00+16зсз0173100 0.1 101411
3 июля, вс
вс300:00+14юз249571 2.9 101482
03:00+12сз22955 2.9 101322
06:00+14ссв36921 0.0 1013195
09:00+19ссв45709 0.0 1014755
12:00+20ссв456733 0.6 10141186
15:00+20ссв456732 0.9 1014980
18:00+20св467224 0.2 1014719
21:00+15св239187 0.3 101551
4 июля, пн
пн400:00+12ссв228927 0.0 101634
03:00+12с228678 0.0 101711
06:00+15сз2578100 0.0 1017138
09:00+21с365978 0.0 1017652
12:00+25ссв354275 0.0 10172437
15:00+25ссв354190 0.0 10162113
18:00+24зсз1158100 0.0 101617
21:00+20ссв016189 0.0 101712